TimeCDT,TemperatureF,Dew PointF,Humidity,Sea Level PressureIn,VisibilityMPH,Wind Direction,Wind SpeedMPH,Gust SpeedMPH,PrecipitationIn,Events,Conditions,WindDirDegrees,DateUTC
12:15 AM,37.4,35.6,93,29.94,10.0,Calm,Calm,-,N/A,,Clear,0,2013-05-11 05:15:00
12:35 AM,35.6,35.6,100,29.94,10.0,Calm,Calm,-,N/A,,Clear,0,2013-05-11 05:35:00
12:55 AM,35.6,35.6,100,29.93,10.0,Calm,Calm,-,N/A,,Mostly Cloudy,0,2013-05-11 05:55:00
1:15 AM,39.2,37.4,93,29.92,10.0,Calm,Calm,-,N/A,,Overcast,0,2013-05-11 06:15:00
1:35 AM,37.4,37.4,100,29.92,10.0,Calm,Calm,-,N/A,,Overcast,0,2013-05-11 06:35:00
1:55 AM,39.2,35.6,87,29.90,10.0,South,3.5,-,N/A,,Overcast,170,2013-05-11 06:55:00
2:15 AM,39.2,37.4,93,29.89,10.0,Calm,Calm,-,N/A,,Overcast,0,2013-05-11 07:15:00
2:35 AM,39.2,37.4,93,29.89,10.0,Calm,Calm,-,N/A,,Overcast,0,2013-05-11 07:35:00
2:55 AM,41.0,37.4,87,29.87,10.0,SSE,3.5,-,N/A,,Overcast,160,2013-05-11 07:55:00
3:15 AM,41.0,37.4,87,29.86,10.0,South,4.6,-,N/A,,Overcast,180,2013-05-11 08:15:00
3:35 AM,41.0,37.4,87,29.85,10.0,South,4.6,-,N/A,,Overcast,180,2013-05-11 08:35:00
3:55 AM,41.0,37.4,87,29.84,10.0,SSW,3.5,-,N/A,,Overcast,200,2013-05-11 08:55:00
4:15 AM,42.8,39.2,87,29.83,10.0,Calm,Calm,-,N/A,,Overcast,0,2013-05-11 09:15:00
4:35 AM,42.8,39.2,87,29.83,10.0,SSE,4.6,-,N/A,,Overcast,160,2013-05-11 09:35:00
4:55 AM,42.8,39.2,87,29.81,10.0,SSE,4.6,-,N/A,,Overcast,150,2013-05-11 09:55:00
5:15 AM,42.8,39.2,87,29.81,10.0,Calm,Calm,-,N/A,,Overcast,0,2013-05-11 10:15:00
5:35 AM,42.8,39.2,87,29.81,10.0,Calm,Calm,-,N/A,,Overcast,0,2013-05-11 10:35:00
5:55 AM,42.8,39.2,87,29.82,10.0,Calm,Calm,-,N/A,,Overcast,0,2013-05-11 10:55:00
6:15 AM,42.8,37.4,81,29.81,10.0,Calm,Calm,-,N/A,,Overcast,0,2013-05-11 11:15:00
6:35 AM,42.8,39.2,87,29.81,10.0,SW,4.6,-,N/A,,Overcast,230,2013-05-11 11:35:00
6:55 AM,42.8,39.2,87,29.81,10.0,SW,6.9,-,N/A,,Overcast,230,2013-05-11 11:55:00
7:15 AM,41.0,39.2,93,29.78,10.0,North,6.9,-,N/A,,Overcast,360,2013-05-11 12:15:00
7:35 AM,42.8,39.2,87,29.78,10.0,South,4.6,-,N/A,,Overcast,170,2013-05-11 12:35:00
7:55 AM,42.8,39.2,87,29.78,10.0,SSW,6.9,-,N/A,,Overcast,200,2013-05-11 12:55:00
8:15 AM,42.8,41.0,93,29.76,9.0,NNE,5.8,-,0.01,,Overcast,30,2013-05-11 13:15:00
8:35 AM,42.8,41.0,93,29.75,8.0,NE,4.6,-,0.01,,Overcast,50,2013-05-11 13:35:00
8:55 AM,42.8,42.8,100,29.76,7.0,North,4.6,-,0.05,,Overcast,360,2013-05-11 13:55:00
9:15 AM,42.8,42.8,100,29.77,5.0,NNW,10.4,16.1,0.01,,Overcast,340,2013-05-11 14:15:00
9:35 AM,39.2,35.6,87,29.79,10.0,NNW,15.0,32.2,0.04,,Overcast,330,2013-05-11 14:35:00
9:55 AM,37.4,35.6,93,29.81,10.0,NNW,16.1,27.6,0.07,,Overcast,340,2013-05-11 14:55:00
10:15 AM,35.6,33.8,93,29.81,5.0,North,17.3,25.3,0.03,,Overcast,350,2013-05-11 15:15:00
10:35 AM,35.6,33.8,93,29.82,8.0,NNW,9.2,21.9,0.04,,Overcast,340,2013-05-11 15:35:00
10:55 AM,37.4,33.8,87,29.83,10.0,NNW,9.2,-,0.05,,Overcast,340,2013-05-11 15:55:00
11:15 AM,37.4,35.6,93,29.84,10.0,NNW,9.2,16.1,0.01,,Overcast,340,2013-05-11 16:15:00
11:35 AM,39.2,35.6,87,29.84,10.0,NNW,12.7,-,0.01,,Mostly Cloudy,330,2013-05-11 16:35:00
11:55 AM,39.2,37.4,93,29.84,10.0,NNW,12.7,17.3,0.01,,Overcast,340,2013-05-11 16:55:00
12:15 PM,39.2,37.4,93,29.83,9.0,NNW,12.7,19.6,N/A,,Overcast,340,2013-05-11 17:15:00
12:35 PM,44.6,39.2,81,29.83,10.0,North,15.0,26.5,N/A,,Mostly Cloudy,350,2013-05-11 17:35:00
12:55 PM,44.6,37.4,76,29.84,10.0,North,17.3,23.0,N/A,,Mostly Cloudy,350,2013-05-11 17:55:00
1:15 PM,44.6,33.8,66,29.84,10.0,NNW,17.3,26.5,N/A,,Mostly Cloudy,340,2013-05-11 18:15:00
1:35 PM,44.6,30.2,57,29.84,10.0,NNW,18.4,29.9,N/A,,Mostly Cloudy,330,2013-05-11 18:35:00
1:55 PM,46.4,28.4,50,29.85,10.0,North,13.8,28.8,N/A,,Mostly Cloudy,350,2013-05-11 18:55:00
2:15 PM,48.2,30.2,50,29.84,10.0,NNW,20.7,26.5,N/A,,Scattered Clouds,340,2013-05-11 19:15:00
2:35 PM,48.2,28.4,46,29.84,10.0,NW,11.5,24.2,N/A,,Mostly Cloudy,310,2013-05-11 19:35:00
2:55 PM,48.2,28.4,46,29.85,10.0,NNW,10.4,24.2,N/A,,Overcast,330,2013-05-11 19:55:00
3:15 PM,48.2,24.8,40,29.85,10.0,NNW,19.6,32.2,N/A,,Mostly Cloudy,330,2013-05-11 20:15:00
3:35 PM,48.2,24.8,40,29.85,10.0,NNW,18.4,26.5,N/A,,Overcast,340,2013-05-11 20:35:00
4:15 PM,46.4,23.0,40,29.86,10.0,NNW,15.0,28.8,N/A,,Mostly Cloudy,330,2013-05-11 21:15:00
4:35 PM,46.4,23.0,40,29.87,10.0,NW,12.7,25.3,N/A,,Mostly Cloudy,310,2013-05-11 21:35:00
4:55 PM,46.4,23.0,40,29.88,10.0,NNW,16.1,19.6,N/A,,Overcast,330,2013-05-11 21:55:00
5:15 PM,46.4,24.8,43,29.88,10.0,WNW,13.8,19.6,N/A,,Mostly Cloudy,300,2013-05-11 22:15:00
5:35 PM,46.4,23.0,40,29.88,10.0,NNW,15.0,24.2,N/A,,Mostly Cloudy,330,2013-05-11 22:35:00
5:55 PM,46.4,21.2,37,29.87,10.0,NW,11.5,18.4,N/A,,Partly Cloudy,320,2013-05-11 22:55:00
6:15 PM,46.4,23.0,40,29.87,10.0,NW,4.6,20.7,N/A,,Partly Cloudy,320,2013-05-11 23:15:00
6:35 PM,46.4,21.2,37,29.88,10.0,NW,6.9,19.6,N/A,,Mostly Cloudy,320,2013-05-11 23:35:00
6:55 PM,39.2,32.0,75,29.91,5.0,NNW,17.3,35.7,N/A,,Overcast,330,2013-05-11 23:55:00
7:15 PM,37.4,33.8,87,29.90,10.0,NNW,12.7,19.6,N/A,,Mostly Cloudy,330,2013-05-12 00:15:00
7:35 PM,37.4,33.8,87,29.90,10.0,NW,13.8,23.0,N/A,,Clear,310,2013-05-12 00:35:00
7:55 PM,39.2,30.2,70,29.90,10.0,NW,15.0,21.9,N/A,,Partly Cloudy,310,2013-05-12 00:55:00
8:15 PM,39.2,30.2,70,29.90,10.0,NW,11.5,20.7,N/A,,Partly Cloudy,320,2013-05-12 01:15:00
8:35 PM,37.4,30.2,75,29.91,10.0,NW,11.5,18.4,N/A,,Clear,320,2013-05-12 01:35:00
8:55 PM,37.4,30.2,75,29.91,10.0,NW,10.4,23.0,N/A,,Partly Cloudy,320,2013-05-12 01:55:00
9:15 PM,37.4,28.4,70,29.92,10.0,NW,11.5,21.9,N/A,,Mostly Cloudy,320,2013-05-12 02:15:00
9:35 PM,37.4,30.2,75,29.92,10.0,NW,5.8,20.7,N/A,,Scattered Clouds,320,2013-05-12 02:35:00
9:55 PM,37.4,28.4,70,29.93,10.0,NW,8.1,18.4,N/A,,Partly Cloudy,310,2013-05-12 02:55:00
10:15 PM,37.4,30.2,75,29.92,10.0,NW,8.1,16.1,N/A,,Partly Cloudy,310,2013-05-12 03:15:00
10:35 PM,37.4,30.2,75,29.92,10.0,NW,9.2,21.9,N/A,,Partly Cloudy,320,2013-05-12 03:35:00
10:55 PM,37.4,30.2,75,29.92,10.0,NW,10.4,18.4,N/A,,Mostly Cloudy,320,2013-05-12 03:55:00
11:15 PM,37.4,30.2,75,29.92,10.0,NW,15.0,20.7,N/A,,Overcast,320,2013-05-12 04:15:00
11:35 PM,35.6,28.4,75,29.92,10.0,NNW,15.0,23.0,N/A,,Overcast,330,2013-05-12 04:35:00
11:55 PM,37.4,28.4,70,29.93,10.0,NW,11.5,18.4,N/A,,Overcast,320,2013-05-12 04:55:00